STARLINK-36889, 68006

Orbit data source: Space-Track

STARLINK-36889, 68006 is a payload satellite owned by SpaceX/Seattle (US) in LEO that was launched on Fri, 27 Feb 2026 UTC via an FALCON 9 launch vehicle from the Air Force Eastern Test Range (AFETR). Payload-class satellites include a variety of spacecraft equipped with specific instruments for various scientific and technological missions. These include communications satellites like Starlink; space stations such as the ISS; scientific satellites like the Hubble; Earth observation satellites from companies like Planet Labs, Umbra, and HawkEye 360; GPS; miniature CubeSats for education and research; and military/defense satellites.

Loading next visibility...
Identifier
68006, 2026-039W
Orbit
LEO
Country
Flag of USUS
Related business
Manufacturer
SpaceX/Seattle
Mission
Operational Commercial Communications
Bus & Motor
STARLINK V2MO, Unknown motor
Mass
575 kg wet, ~530 kg dry
Launch date (UTC)
2026-02-27 (2 months ago)
Launch vehicle
FALCON 9
Launch site
Air Force Eastern Test Range (AFETR)
Object type
Payload
Rocket body
Debris
Shape & HBR
Box + 2 Pan, 17.7 m
Radar Cross Section
36.964 m²

Expand to show TLE details & history
Last TLE update: 7 hours ago

TLE from 7 hours ago
0 STARLINK-36889
1 68006U 26039W   26119.30878540  .00019489  00000-0  71576-3 0  9994
2 68006  43.0018 123.1673 0001286 292.3748  67.6968 15.27585033  9441
Epoch: 2026-04-29T07:24Z
TLE epoch observation values (Epoch: 2026-04-29T07:24:39.058Z)
Latitude
0.00002°
Longitude
154.73298°
Altitude
482.475 km
Speed
7.626 km/s
True Right ascension
08h 12m 40s
True Declination
0° 00' 00"
Sunlit
Object was in daylight at epoch
Visualization orbit readout
Latitude
Unknown
Longitude
Unknown
Altitude
Unknown
Speed
Unknown
Apparent Right ascension
Unknown
Apparent Declination
Unknown
Sunlit
N/A
Visualization observer readout
Local Sidereal Time
21:51:29
Azimuth
Unknown
Elevation
Unknown
Doppler factor
Unknown
Orbital elements
Apogee altitude
485.861 km
Perigee altitude
484.096 km
Semi-major axis
6,863.116 km
Eccentricity
0.00013
Inclination
43.0018°
RAAN
123.1673°
Arg. of periapsis
292.3748°
True anomaly
67.71043°
Mean anomaly
67.6968°
Eccentric anomaly
67.70362°
Mean motion
3.81734 °/min
Orbital period
94.31 mins
BSTAR
0.00071576
Loading maneuver chart data...
Computing Atmospheric mass density...
Loading historical data...
Loading historical data...
Loading historical data...
Loading historical data...
Loading historical data...
Loading historical data...
Loading historical data...

Documentation

Showing up to 5 results
|